FW0304 Weather Reports


time (UTC)temp
C
wind
direction
speed
KPH
gust
KPH
rain 1hr
cm
rain 24hr
cm
rain mn
cm
humidity
%
barometer
mb
20260510164518 23 32 0.0 3.2 0.00 0.05 0.03 76 1018.4
20260510163023 22 181 1.6 6.4 0.00 0.05 0.03 75 1018.4
20260510161527 22 171 0.0 4.8 0.00 0.05 0.03 84 1018.4
20260510160028 22 314 0.0 3.2 0.00 0.05 0.03 86 1018.4
20260510154510 20 352 0.0 4.8 0.00 0.05 0.03 91 1018.4
20260510153014 20 104 0.0 4.8 0.00 0.05 0.03 93 1018.4
20260510151521 19 112 1.6 6.4 0.00 0.05 0.03 94 1018.2
20260510150036 19 95 0.0 3.2 0.00 0.05 0.03 95 1018.2
20260510144513 19 94 0.0 3.2 0.00 0.05 0.03 96 1018.2
20260510143024 18 110 0.0 3.2 0.00 0.05 0.03 96 1018.3
20260510141519 18 109 0.0 3.2 0.00 0.05 0.03 96 1018.4
20260510140024 18 75 0.0 3.2 0.00 0.05 0.03 96 1018.3
20260510134525 18 75 0.0 3.2 0.00 0.05 0.03 96 1018.2
20260510133010 18 75 0.0 3.2 0.00 0.05 0.03 96 1018.1
20260510131524 18 75 0.0 0.0 0.00 0.05 0.03 96 1018.0
20260510130020 18 75 0.0 0.0 0.00 0.05 0.03 96 1017.9
20260510124532 18 75 0.0 0.0 0.00 0.05 0.03 96 1017.7
20260510123027 18 75 0.0 0.0 0.00 0.05 0.03 96 1017.7
20260510121517 17 75 0.0 0.0 0.00 0.05 0.03 96 1017.8
20260510120020 17 75 0.0 0.0 0.00 0.05 0.03 96 1017.3
20260510114522 17 75 0.0 0.0 0.00 0.05 0.03 96 1016.8
20260510113011 17 75 0.0 0.0 0.00 0.05 0.03 96 1016.5
20260510111512 17 75 0.0 0.0 0.00 0.05 0.03 96 1016.3
20260510110023 17 75 0.0 3.2 0.00 0.05 0.03 96 1015.9
20260510104521 17 75 0.0 3.2 0.00 0.05 0.03 96 1015.5
20260510103008 17 75 0.0 3.2 0.00 0.05 0.03 96 1015.4
20260510101512 17 75 0.0 3.2 0.00 0.05 0.03 95 1015.4
20260510093024 17 75 0.0 3.2 0.00 0.05 0.03 95 1014.7
20260510090018 17 75 0.0 3.2 0.00 0.05 0.03 95 1014.6
20260510084520 17 75 0.0 3.2 0.00 0.05 0.03 95 1014.4
20260510083029 17 75 0.0 1.6 0.00 0.05 0.03 95 1014.1
20260510081529 17 75 0.0 3.2 0.00 0.05 0.03 95 1014.0
20260510074519 17 75 0.0 3.2 0.00 0.05 0.03 95 1013.8
20260510073023 17 75 0.0 0.0 0.00 0.05 0.03 95 1013.7
20260510071526 17 75 0.0 3.2 0.00 0.05 0.03 95 1013.9
20260510070035 16 75 0.0 0.0 0.00 0.05 0.03 95 1013.8
20260510064520 16 75 0.0 3.2 0.00 0.05 0.03 94 1013.9
20260510063021 16 75 0.0 0.0 0.03 0.05 0.03 94 1013.9
20260510061525 16 75 0.0 0.0 0.03 0.05 0.03 94 1014.1
20260510060024 16 75 0.0 0.0 0.03 0.05 0.03 94 1014.0
20260510054515 16 75 0.0 3.2 0.03 0.05 0.03 94 1014.1
20260510053020 16 75 0.0 0.0 0.00 0.03 0.00 94 1014.2
20260510051523 17 75 0.0 0.0 0.00 0.03 0.00 94 1014.2
20260510050027 17 75 0.0 0.0 0.00 0.03 0.00 93 1014.3
20260510044532 17 75 0.0 0.0 0.00 0.03 0.03 93 1014.3
20260510043017 17 75 0.0 0.0 0.00 0.03 0.03 93 1014.2
20260510041504 17 75 0.0 0.0 0.00 0.03 0.03 93 1014.3
20260510040010 17 75 0.0 0.0 0.00 0.03 0.03 93 1014.6
20260510034507 17 75 0.0 1.6 0.00 0.05 0.03 93 1014.8
20260510033014 17 75 0.0 3.2 0.00 0.05 0.03 93 1014.8
20260510031520 17 75 0.0 0.0 0.00 0.05 0.03 93 1014.8
20260510030004 17 75 0.0 0.0 0.00 0.05 0.03 93 1014.7
20260510024506 18 75 0.0 3.2 0.00 0.05 0.03 93 1014.6
20260510023011 18 75 0.0 0.0 0.00 0.05 0.03 93 1014.4
20260510021519 18 75 0.0 0.0 0.00 0.05 0.03 92 1014.3
20260510020022 18 75 0.0 0.0 0.00 0.05 0.03 92 1014.1
20260510014508 18 75 0.0 0.0 0.00 0.05 0.03 92 1013.9
20260510013008 18 75 0.0 0.0 0.00 0.05 0.03 91 1013.5
20260510011533 19 75 0.0 0.0 0.00 0.05 0.03 91 1013.0
20260510010019 20 75 0.0 0.0 0.00 0.05 0.03 90 1012.9
20260510004524 20 75 0.0 0.0 0.00 0.05 0.03 90 1012.5
20260510003009 20 75 0.0 0.0 0.00 0.05 0.03 89 1012.4
20260510001512 21 75 0.0 0.0 0.00 0.05 0.03 88 1012.1
20260510000027 21 75 0.0 0.0 0.00 0.05 0.03 86 1012.1
20260509234529 21 75 0.0 0.0 0.00 0.05 0.03 84 1012.0
20260509233012 21 75 0.0 3.2 0.00 0.05 0.03 84 1012.0
20260509231513 21 75 0.0 0.0 0.00 0.05 0.03 83 1011.9
20260509230018 22 75 0.0 0.0 0.00 0.05 0.03 82 1012.2
20260509224523 22 75 0.0 0.0 0.00 0.05 0.03 81 1012.1
20260509223025 22 75 0.0 0.0 0.00 0.05 0.03 78 1012.0
20260509221510 22 75 0.0 3.2 0.00 0.05 0.03 77 1011.8
20260509220015 22 45 0.0 3.2 0.00 0.05 0.03 77 1011.8
20260509214526 22 45 0.0 3.2 0.00 0.05 0.03 76 1011.7
20260509213022 22 67 0.0 3.2 0.00 0.05 0.03 78 1011.6
20260509211525 22 155 0.0 3.2 0.00 0.05 0.03 76 1011.3
20260509210012 22 28 0.0 3.2 0.00 0.05 0.03 76 1011.5
20260509204524 22 304 0.0 3.2 0.00 0.05 0.03 77 1011.3
20260509203022 22 304 0.0 3.2 0.00 0.05 0.03 77 1011.5
20260509201528 22 319 0.0 3.2 0.00 0.05 0.03 78 1011.8
20260509200010 22 346 0.0 3.2 0.00 0.05 0.03 1012.1
20260509194517 22 346 0.0 3.2 0.00 0.05 0.03 76 1012.2
20260509193026 22 352 0.0 3.2 0.00 0.05 0.03 81 1012.1
20260509191510 21 85 0.0 3.2 0.00 0.05 0.03 79 1012.4
20260509190009 21 120 0.0 3.2 0.00 0.05 0.03 80 1012.5
20260509184515 21 138 0.0 3.2 0.03 0.05 0.03 1012.7
20260509183018 21 150 0.0 3.2 0.03 0.05 0.03 79 1012.8
20260509181524 21 15 0.0 3.2 0.03 0.05 0.03 81 1013.0
20260509180013 20 147 0.0 0.0 0.03 0.05 0.03 82 1013.3
20260509174514 20 147 0.0 3.2 0.00 0.03 0.00 83 1013.5
20260509173025 20 160 0.0 3.2 0.00 0.03 0.00 83 1013.6
20260509171523 20 121 0.0 3.2 0.00 0.03 0.00 82 1013.6
20260509170026 20 99 0.0 3.2 0.00 0.03 0.00 85 1013.7